This demonstration page uses our WeatherBlox Daily Observations layout. Learn more.

Left ArrowRight Arrow

39.51506, -84.39828

Hourly Observations for August 11, 2020

Temp ( °F °C ) Dew Point ( °F °C ) Humidity (%) Winds ( mph kmh ) Pressure ( in mb ) Visibility ( mi km ) Precip ( " mm )
12:15 am 00:15 Cloudy with Rain 69 20.7 69 20.6 99 99 SSW 5 7 30.01 1016 10 16.0934 0 0
12:35 am 00:35 Mostly Cloudy with Light Rain 69 20.8 69 20.7 99 99 SSW 6 9 29.99 1016 10 16.0934 0 0
12:55 am 00:55 Mostly Cloudy with Light Rain 69 20.8 69 20.8 100 100 S 3 6 29.96 1015 10 16.0934 0 0
1:15 am 01:15 Partly Cloudy with Light Rain 69 20.7 69 20.6 99 99 S 7 11 29.93 1014 10 16.0934 0 0
1:35 am 01:35 Clear 69 20.6 69 20.4 99 99 Calm 29.89 1012 10 16.0934 0 0
1:55 am 01:55 Clear 69 20.6 68 20.1 97 97 Calm 29.89 1012 10 16.0934 0 0
2:15 am 02:15 Clear 69 20.4 68 20 98 98 Calm 29.89 1012 10 16.0934 0 0
2:35 am 02:35 Clear 68 20 68 19.9 99 99 W 3 6 29.89 1012 10 16.0934 0 0
2:55 am 02:55 Clear 67 19.7 67 19.7 100 100 SW 3 6 29.9 1012 10 16.0934 0 0
3:15 am 03:15 Clear 68 20 68 20 100 100 Calm 29.89 1012 10 16.0934 0 0
3:35 am 03:35 Clear 68 20 N/A N/A Calm 29.89 1012 10 16.0934 0 0
3:55 am 03:55 Clear 68 20 N/A N/A WNW 5 7 29.92 1013 10 16.0934 0 0
4:15 am 04:15 Partly Cloudy 68 20 N/A N/A WSW 3 6 29.94 1014 10 16.0934 0 0
4:35 am 04:35 Cloudy 68 19.9 68 19.8 99 99 WSW 5 7 29.94 1014 10 16.0934 0 0
4:55 am 04:55 Cloudy 68 20 68 19.9 99 99 SW 5 7 29.96 1015 10 16.0934 0 0
5:15 am 05:15 Cloudy 68 20 68 19.9 99 99 SSW 6 9 29.96 1015 10 16.0934 0 0
5:35 am 05:35 Partly Cloudy 68 19.8 67 19.7 99 99 SSW 7 11 29.97 1015 10 16.0934 0 0
5:55 am 05:55 Mostly Cloudy 68 20 68 20 100 100 SW 6 9 29.96 1015 7 11.26538 0 0
6:15 am 06:15 Partly Cloudy 68 20 N/A N/A SW 6 9 29.96 1015 7 11.26538 0 0
6:35 am 06:35 Clear 68 20 68 20 100 100 S 7 11 29.96 1015 10 16.0934 0 0
6:55 am 06:55 Partly Cloudy 68 20 68 20 100 100 WSW 6 9 29.98 1015 7 11.26538 0 0
7:15 am 07:15 Sunny 68 20 68 20 100 100 Calm 29.98 1015 7 11.26538 0 0
7:35 am 07:35 Partly Cloudy 68 20.1 68 20.1 100 100 SW 3 6 29.99 1016 10 16.0934 0 0
7:55 am 07:55 Partly Cloudy 69 20.4 69 20.3 99 99 WSW 5 7 29.99 1016 10 16.0934 0 0
8:15 am 08:15 Cloudy 69 20.6 69 20.3 98 98 WSW 3 6 30 1016 10 16.0934 0 0
8:35 am 08:35 Cloudy 69 20.8 69 20.3 97 97 WSW 7 11 30 1016 10 16.0934 0 0
8:55 am 08:55 Cloudy 70 21 69 20.5 97 97 WSW 8 13 30 1016 10 16.0934 0 0
9:15 am 09:15 Cloudy 70 21.2 69 20.4 95 95 WSW 6 9 30 1016 10 16.0934 0 0
9:35 am 09:35 Sunny 71 21.6 70 20.9 96 96 SW 8 13 30 1016 10 16.0934 0 0
9:55 am 09:55 Partly Cloudy 72 22.1 70 21.1 94 94 SW 7 11 30 1016 10 16.0934 0 0
10:15 am 10:15 Partly Cloudy 73 22.6 70 21.2 92 92 SW 6 9 30 1016 10 16.0934 0 0
10:35 am 10:35 Mostly Cloudy 73 23 70 21.2 90 90 WSW 8 13 30 1016 10 16.0934 0 0
10:55 am 10:55 Mostly Cloudy 76 24.2 71 21.4 84 84 WSW 10 17 30 1016 10 16.0934 0 0
11:15 am 11:15 Mostly Cloudy 77 24.8 70 21.3 81 81 W 6 9 30 1016 10 16.0934 0 0
11:35 am 11:35 Partly Cloudy 77 25.1 70 21.1 79 79 WSW 5 7 30 1016 10 16.0934 0 0
11:55 am 11:55 Partly Cloudy 78 25.6 70 20.9 75 75 W 8 13 30 1016 10 16.0934 0 0
12:15 pm 12:15 Partly Cloudy 78 25.7 69 20.6 74 74 Calm 30 1016 10 16.0934 0 0
12:35 pm 12:35 Mostly Cloudy 79 26.1 69 20.7 72 72 Calm 30 1016 10 16.0934 0 0
12:55 pm 12:55 Mostly Cloudy 79 26.3 69 20.4 70 70 Calm 29.99 1016 10 16.0934 0.01 0.254
1:15 pm 13:15 Partly Cloudy 80 26.9 69 20.5 68 68 SW 5 7 29.99 1016 10 16.0934 0.01 0.254
1:35 pm 13:35 Sunny 80 26.9 70 21 70 70 WSW 6 9 29.99 1016 10 16.0934 0.02 0.508
1:55 pm 13:55 Sunny 82 27.7 70 21.1 67 67 WSW 8 13 29.99 1015 10 16.0934 0.03 0.762
2:15 pm 14:15 Mostly Cloudy 80 26.9 69 20.8 69 69 WSW 6 9 29.98 1015 10 16.0934 0.01 0.254
2:35 pm 14:35 Partly Cloudy 82 27.5 69 20.8 67 67 Calm 29.98 1015 10 16.0934 0.01 0.254
2:55 pm 14:55 Partly Cloudy 83 28.4 71 21.5 66 66 SW 6 9 29.98 1015 10 16.0934 0.02 0.508
3:15 pm 15:15 Sunny 83 28.2 70 21 65 65 W 6 9 29.97 1015 10 16.0934 0.01 0.254
3:35 pm 15:35 Sunny 84 28.7 70 21 63 63 WSW 8 13 29.96 1015 10 16.0934 0.02 0.508
3:55 pm 15:55 Partly Cloudy 83 28.2 70 21 65 65 W 5 7 29.97 1015 10 16.0934 0.03 0.762
4:15 pm 16:15 Sunny 84 28.8 71 21.4 64 64 SW 7 11 29.95 1014 10 16.0934 0 0
4:35 pm 16:35 Sunny 84 29 71 21.8 65 65 WSW 7 11 29.95 1014 10 16.0934 0.01 0.254
4:55 pm 16:55 Partly Cloudy 83 28.6 71 21.4 65 65 SW 5 7 29.95 1014 10 16.0934 0.01 0.254
5:15 pm 17:15 Sunny 82 28 71 21.8 69 69 W 5 7 29.96 1014 10 16.0934 0 0
5:35 pm 17:35 Partly Cloudy 82 28 71 21.8 69 69 W 5 7 29.95 1014 10 16.0934 0 0
5:55 pm 17:55 Sunny 83 28.3 70 21.2 65 65 WSW 5 7 29.95 1014 10 16.0934 0.01 0.254
6:15 pm 18:15 Partly Cloudy 84 28.8 69 20.8 62 62 W 7 11 29.94 1014 10 16.0934 0 0
6:35 pm 18:35 Sunny 83 28.5 71 21.4 65 65 WSW 9 15 29.95 1014 10 16.0934 0 0
6:55 pm 18:55 Sunny 83 28.4 70 21 64 64 WSW 5 7 29.95 1014 10 16.0934 0 0
7:15 pm 19:15 Sunny 83 28.2 70 21.3 66 66 WSW 6 9 29.95 1014 10 16.0934 0 0
7:35 pm 19:35 Sunny 80 26.6 71 21.5 74 74 W 5 7 29.95 1014 10 16.0934 0 0
7:55 pm 19:55 Mostly Cloudy 79 26.2 73 22.5 80 80 Calm 29.95 1014 10 16.0934 0 0
8:15 pm 20:15 Partly Cloudy 78 25.7 72 22.4 82 82 Calm 29.96 1015 10 16.0934 0 0
8:35 pm 20:35 Sunny 76 24.5 73 22.9 91 91 Calm 29.97 1015 10 16.0934 0 0
8:55 pm 20:55 Mostly Cloudy 74 23.6 72 22.4 93 93 WNW 3 6 29.98 1015 10 16.0934 0 0
9:15 pm 21:15 Clear 74 23.2 72 22.4 95 95 Calm 29.98 1015 10 16.0934 0 0
9:35 pm 21:35 Clear 73 23 72 22.2 95 95 Calm 29.99 1015 10 16.0934 0 0
9:55 pm 21:55 Clear 72 22.4 71 21.8 96 96 Calm 30 1016 10 16.0934 0 0
10:15 pm 22:15 Clear 72 22.3 71 21.9 98 98 Calm 30 1016 10 16.0934 0 0
10:35 pm 22:35 Clear 73 22.6 71 21.7 95 95 Calm 30 1016 10 16.0934 0 0
10:55 pm 22:55 Clear 72 22 71 21.5 97 97 Calm 30 1016 10 16.0934 0 0
11:15 pm 23:15 Clear 71 21.8 70 21.3 97 97 NNE 3 6 30 1016 10 16.0934 0 0
11:35 pm 23:35 Clear 71 21.8 70 21.1 96 96 Calm 30.01 1016 10 16.0934 0 0
11:55 pm 23:55 Clear 70 21 70 21 100 100 Calm 30.01 1016 10 16.0934 0 0

Powered by AerisWeather